Location: Newark
(39.9581°N, 97.2014°W)
Time: 06:04:05
(UTC+00:00)

A-11 Canister half - Visible Passes

Search period start: 24 February 2020 00:00
Search period end: 05 March 2020 00:00
Orbit: 1517 x 1683 km, 47.2° (Epoch: 23 February)

Date Brightness Start Highest point End Pass type
(mag) Time Alt. Az. Time Alt. Az. Time Alt. Az.
24 Feb 9.3 01:26:46 10° WNW 01:36:29 58° N 01:42:49 23° ENE visible
24 Feb 9.0 03:32:24 10° WNW 03:41:02 74° WNW 03:41:02 74° WNW visible
24 Feb 11.1 05:38:14 10° WNW 05:39:14 13° WNW 05:39:14 13° WNW visible
25 Feb 9.4 01:03:45 10° WNW 01:13:30 57° N 01:21:17 16° E visible
25 Feb 8.8 03:09:27 10° WNW 03:19:14 89° NNE 03:19:29 86° ESE visible
25 Feb 10.8 05:15:11 10° WNW 05:17:42 19° W 05:17:42 19° W visible
26 Feb 9.4 00:40:43 10° WNW 00:50:30 57° N 00:59:46 10° E visible
26 Feb 8.8 02:46:28 10° WNW 02:56:18 86° NNE 02:57:59 66° ESE visible
26 Feb 10.5 04:52:08 10° WNW 04:56:12 25° W 04:56:12 25° W visible
27 Feb 8.9 02:23:31 10° WNW 02:33:22 83° NNE 02:36:31 49° ESE visible
27 Feb 10.1 04:29:06 10° WNW 04:34:44 32° W 04:34:44 32° W visible
28 Feb 9.0 02:00:33 10° WNW 02:10:26 81° NNE 02:15:05 36° ESE visible
28 Feb 9.8 04:06:05 10° WNW 04:13:18 39° WSW 04:13:18 39° WSW visible
29 Feb 9.0 01:37:34 10° WNW 01:47:29 78° NNE 01:53:42 25° ESE visible
29 Feb 9.6 03:43:04 10° WNW 03:51:56 44° SW 03:51:56 44° SW visible
01 Mar 9.1 01:14:36 10° WNW 01:24:31 76° NNE 01:32:23 17° ESE visible
01 Mar 9.5 03:20:04 10° WNW 03:29:10 47° SW 03:30:38 44° SSW visible
02 Mar 9.1 00:51:37 10° WNW 01:01:34 74° NNE 01:11:08 10° ESE visible
02 Mar 9.5 02:57:04 10° WNW 03:06:18 50° SW 03:09:22 38° S visible
02 Mar 11.1 05:06:54 10° WSW 05:07:36 11° WSW 05:07:36 11° WSW visible
03 Mar 9.2 00:28:38 10° WNW 00:38:36 71° NNE 00:48:11 10° ESE visible
03 Mar 9.5 02:34:04 10° WNW 02:43:26 53° SW 02:48:12 30° SSE visible
03 Mar 10.9 04:42:56 10° W 04:46:26 13° WSW 04:46:26 13° WSW visible
04 Mar 9.5 02:11:05 10° WNW 02:20:34 56° SW 02:27:06 21° SSE visible
04 Mar 10.8 04:19:19 10° W 04:23:49 14° WSW 04:25:21 14° SW visible
